DW9271 Weather Reports


Display with metric or nautical units.
time (UTC)temp
F
wind
direction
speed
MPH
gust
MPH
rain 1hr
in
rain 24hr
in
rain mn
in
humidity
%
barometer
mb
20260904133015 67 199 0.0 1.0 0.00 1.30 0.75 98 1011.7
20260904131513 67 205 1.0 6.0 0.00 1.30 0.75 98 1011.9
20260904130013 68 317 0.0 3.0 0.00 1.30 0.75 98 1011.8
20260904124513 67 140 0.0 0.0 0.00 1.30 0.75 98 1012.1
20260904123011 67 138 1.0 5.0 0.01 1.30 0.75 98 1011.0
20260904121510 67 142 1.0 4.0 0.01 1.30 0.75 98 1010.8
20260904120008 67 140 2.0 7.0 0.07 1.30 0.75 98 1010.9
20260904114506 68 150 2.0 9.0 0.08 1.30 0.75 98 1011.1
20260904113006 68 143 1.0 8.0 0.21 1.29 0.74 98 1011.2
20260904111503 68 138 1.0 4.0 0.26 1.29 0.74 98 1011.8
20260904110003 68 138 0.0 5.0 0.36 1.23 0.68 98 1011.9
20260904104502 68 131 3.0 8.0 0.39 1.22 0.67 98 1011.5
20260904103001 68 124 0.0 6.0 0.28 1.08 0.53 98 1011.9
20260904101502 69 120 0.0 3.0 0.23 1.02 0.47 98 1011.7
20260904100122 69 119 0.0 1.0 0.17 0.87 0.32 98 1011.8
20260904094600 69 87 0.0 2.0 0.17 0.83 0.28 98 1011.4
20260904093104 69 324 0.0 4.0 0.16 0.79 0.24 98 1012.3
20260904091559 69 355 0.0 0.0 0.17 0.79 0.24 98 1010.8
20260904090054 69 355 0.0 1.0 0.08 0.70 0.15 97 1011.2
20260904084554 69 355 0.0 2.0 0.05 0.66 0.11 97 1011.7
20260904083055 69 135 0.0 0.0 0.04 0.63 0.08 97 1011.8
20260904081552 69 138 0.0 0.0 0.04 0.62 0.07 97 1011.1
20260904080052 69 138 0.0 3.0 0.04 0.62 0.07 97 1010.0
20260904074601 69 143 0.0 3.0 0.05 0.61 0.06 97 1010.0
20260904073050 69 178 0.0 0.0 0.04 0.59 0.04 97 1011.0
20260904071615 69 178 0.0 0.0 0.03 0.57 0.03 97 1011.7
20260904070101 69 184 0.0 0.0 0.03 0.57 0.03 97 1010.9
20260904064603 69 201 0.0 3.0 0.01 0.56 0.01 97 1010.8
20260904063052 69 103 2.0 4.0 0.00 0.55 0.00 97 1010.1
20260904061545 69 24 1.0 5.0 0.00 0.55 0.00 97 1010.9
20260904060046 69 132 0.0 7.0 0.00 0.55 0.00 97 1010.4
20260904054544 69 134 1.0 8.0 0.00 0.55 0.00 97 1010.9
20260904053054 68 132 4.0 8.0 0.01 0.55 0.00 97 1010.0
20260904051540 68 140 2.0 9.0 0.01 0.55 0.00 97 1010.8
20260904050036 68 135 5.0 12.0 0.01 0.55 0.55 97 1011.6
20260904044534 68 31 0.0 3.0 0.01 0.55 0.55 96 1012.5
20260904043033 68 21 0.0 0.0 0.00 0.54 0.54 96 1013.4
20260904041537 68 22 0.0 0.0 0.00 0.54 0.54 96 1013.0
20260904040032 68 22 0.0 0.0 0.01 0.54 0.54 96 1012.4
20260904034534 68 83 0.0 2.0 0.03 0.54 0.54 95 1012.4
20260904033031 68 127 1.0 8.0 0.05 0.54 0.54 96 1011.5
20260904031531 68 128 5.0 10.0 0.05 0.54 0.54 95 1011.0
20260904030035 69 121 2.0 5.0 0.04 0.53 0.53 94 1012.4
20260904024526 70 44 0.0 0.0 0.02 0.51 0.51 94 1013.7
20260904023024 70 44 0.0 1.0 0.00 0.49 0.49 94 1013.6
20260904021533 70 344 0.0 3.0 0.00 0.49 0.49 94 1013.0
20260904020018 70 78 0.0 3.0 0.00 0.49 0.49 93 1012.4
20260904014521 70 77 0.0 1.0 0.00 0.49 0.49 93 1012.0
20260904013017 71 77 0.0 0.0 0.00 0.49 0.49 92 1012.2
20260904011516 71 77 0.0 3.0 0.00 0.49 0.49 92 1011.7
20260904010020 72 77 0.0 3.0 0.00 0.49 0.49 92 1011.2
20260904004516 72 74 0.0 1.0 0.00 0.49 0.49 91 1011.3
20260904003021 72 70 0.0 0.0 0.00 0.49 0.49 90 1011.4
20260904001515 73 69 0.0 0.0 0.00 0.49 0.49 90 1011.2
20260904000014 73 86 0.0 4.0 0.00 0.49 0.49 89 1011.4
20260903234513 73 84 0.0 4.0 0.00 0.49 0.49 87 1011.4
20260903233014 74 86 0.0 4.0 0.00 0.49 0.49 87 1011.2
20260903231512 75 86 0.0 4.0 0.00 0.49 0.49 85 1011.5
20260903230015 77 51 0.0 3.0 0.00 0.49 0.49 85 1011.4
20260903224512 77 57 0.0 3.0 0.00 0.49 0.49 84 1010.6
20260903223012 78 56 0.0 2.0 0.00 0.49 0.49 84 1010.9
20260903221528 78 55 0.0 2.0 0.00 0.49 0.49 84 1010.8
20260903220011 78 55 0.0 1.0 0.00 0.49 0.49 82 1010.8
20260903214510 79 55 0.0 2.0 0.00 0.49 0.49 81 1010.8
20260903213019 79 52 0.0 4.0 0.00 0.49 0.49 81 1010.5
20260903211507 80 66 1.0 7.0 0.00 0.49 0.49 78 1010.3
20260903210006 81 27 0.0 5.0 0.00 0.49 0.49 76 1010.6
20260903204507 80 302 0.0 2.0 0.00 0.49 0.49 76 1010.8
20260903203008 80 277 0.0 3.0 0.00 0.49 0.49 77 1011.0
20260903201504 80 192 0.0 1.0 0.00 0.49 0.49 79 1011.0
20260903200007 79 198 0.0 0.0 0.00 0.49 0.49 79 1011.1
20260903194601 79 184 0.0 1.0 0.00 0.49 0.49 77 1011.2
20260903193058 79 196 0.0 4.0 0.00 0.49 0.49 80 1011.1
20260903191554 78 199 0.0 4.0 0.00 0.49 0.49 84 1011.2
20260903190050 76 181 0.0 2.0 0.00 0.49 0.49 87 1011.4
20260903184548 76 236 0.0 4.0 0.00 0.49 0.49 89 1011.5
20260903183046 74 83 0.0 2.0 0.00 0.49 0.49 92 1011.6
20260903181541 74 82 0.0 2.0 0.00 0.49 0.49 94 1011.6
20260903174536 72 82 0.0 2.0 0.00 0.49 0.49 97 1012.0
20260903173035 72 82 0.0 3.0 0.00 0.49 0.49 96 1011.9
20260903171537 72 80 0.0 1.0 0.00 0.49 0.49 97 1011.6
20260903170031 71 80 0.0 4.0 0.01 0.49 0.49 97 1010.6
20260903164534 70 84 2.0 6.0 0.02 0.49 0.49 97 1010.9
20260903163040 70 80 0.0 6.0 0.11 0.49 0.49 97 1011.4
20260903161528 69 69 0.0 2.0 0.12 0.49 0.49 96 1011.6
20260903160030 69 29 0.0 4.0 0.12 0.48 0.48 95 1011.8
20260903154527 69 355 0.0 2.0 0.22 0.47 0.47 95 1012.3
20260903153028 69 275 1.0 4.0 0.28 0.37 0.37 94 1012.2
20260903151526 69 92 0.0 0.0 0.37 0.37 0.37 94 1011.5
20260903150022 70 92 0.0 3.0 0.36 0.36 0.36 92 1011.1
20260903144521 70 92 0.0 0.0 0.24 0.24 0.24 91 1011.1
20260903143024 71 92 0.0 1.0 0.09 0.09 0.09 89 1010.7
20260903141518 71 92 0.0 3.0 0.00 0.00 0.00 88 1011.1
20260903140024 71 77 0.0 3.0 0.00 0.00 0.00 88 1011.1
20260903134515 71 76 0.0 7.0 0.00 0.00 0.00 88 1011.1